User: anonymous   Login
Location: Unspecified
(0.0000°N, 0.0000°E)
Time: 11:44:40
(UTC+00:00)
Language:

Skynet 4B - Orbit

View from above orbital plane
View from above orbital plane
View from above satellite
View from above satellite

Ground track
Ground track

The orbit data is extracted from the following two-line orbital elements,

1 19687U 88109A   18349.84588481 -.00000266 +00000-0 +00000-0 0  9993
2 19687 015.3081 359.7611 0008912 272.8985 087.0101 00.99680812090856
Epoch (UTC): 15 December 2018 20:18:04
Eccentricity: 0.0008912
inclination: 15.3081°
perigee height: 35915 km
apogee height: 35990 km
right ascension of ascending node: 359.7611°
argument of perigee: 272.8985°
revolutions per day: 0.99680812
mean anomaly at epoch: 87.0101°
orbit number at epoch: 9085

The dashed part of the orbit path shows where the satellite is in the earth's shadow,  

DLR